Simultaneous Nadir Overpasses (SNOs) Predictions

Prediction of SNOs between METOP-A and NOAA-19 Satellite Orbit:

Table of predicted SNOs for the next 14.0 days since TLE Epoch: 9/13/2014
Index Date (METOP-A) Time (METOP-A) Lat,Lon (METOP-A) SZA (METOP-A ) Date (NOAA-19) Time (NOAA-19) Lat,Lon (NOAA-19) SZA (NOAA-19 ) Distance(km) Time Diff (sec)
1 09/19/2014 03:33:36 -74.66, -57.04 106.96 09/19/2014 03:32:26 -74.64, -58.92 106.94 55.50 70
2 09/19/2014 04:24:24 74.28, 109.29 72.69 09/19/2014 04:23:25 74.29, 109.25 72.71 2.01 59
3 09/19/2014 05:15:05 -74.25, -83.45 107.33 09/19/2014 05:14:20 -74.24, -83.34 107.34 3.63 45
4 09/19/2014 06:05:45 74.26, 83.90 72.70 09/19/2014 06:05:27 74.27, 83.80 72.72 3.46 18
5 09/19/2014 06:56:27 -74.23,-108.84 107.32 09/19/2014 06:56:23 -74.22,-108.80 107.33 1.94 4
6
